Weather History for Heber, UT

Change the Weather History Date:

Sunday, October 14, 2012

  Actual Average (KPVU) Record (KPVU)
Temperature  
Mean Temperature 48 °F -  
Max Temperature 64 °F 63 °F 78 °F (1989)
Min Temperature 32 °F 35 °F 26 °F (2008)
Degree Days  
Heating Degree Days 17    
Moisture  
Dew Point 35 °F    
Average Humidity 72    
Maximum Humidity 100    
Minimum Humidity 34    
Precipitation  
Precipitation 0.00 in - - ()
Sea Level Pressure  
Sea Level Pressure 30.35 in    
Wind  
Wind Speed 2 mph (SW)    
Max Wind Speed 14 mph    
Max Gust Speed -    
Visibility 9 miles    
Events Fog , Snow    
Averages and records for this station are not official NWS values.
T = Trace of Precipitation, MM = Missing Value Source: NWS Daily Summary

Daily Weather History Graph

Daily Weather History Graph

Search for Another Location

Airport:

Trip Planner

Search our weather history database for the weather conditions in past years. The results will help you decide how hot, cold, wet, or windy it might be!

Date:

Astronomy

Oct. 14, 2012 Rise Set
Actual Time 7:36 AM MDT 6:46 PM MDT
Civil Twilight 7:08 AM MDT 7:13 PM MDT
Nautical Twilight 6:37 AM MDT 7:45 PM MDT
Astronomical Twilight 6:05 AM MDT 8:16 PM MDT
Moon 6:39 AM MDT (10/14) 6:08 PM MDT (10/14)
Length of Visible Light 12h 05m
Length of Day
11h 10m
Waning Crescent, 1% of the Moon is Illuminated
Oct 14
Waning Crescent
Oct 15
New
Oct 21
First Quarter
Oct 29
Full
Nov 6
Last Quarter

Hourly Weather History & Observations

Time (MDT) Temp. Windchill Dew Point Humidity Pressure Visibility Wind Dir Wind Speed Gust Speed Precip Events Conditions
12:15 AM 44.6 °F - 41.0 °F 87% 30.36 in 10.0 mi Calm Calm - N/A   Scattered Clouds
12:35 AM 42.8 °F - 39.2 °F 87% 30.36 in 10.0 mi Calm Calm - N/A   Scattered Clouds
12:55 AM 41.0 °F - 37.4 °F 87% 30.35 in 10.0 mi Calm Calm - N/A   Clear
1:15 AM 41.0 °F - 37.4 °F 87% 30.34 in 10.0 mi Calm Calm - N/A   Clear
1:35 AM 37.4 °F - 35.6 °F 93% 30.35 in 10.0 mi Calm Calm - N/A   Clear
1:55 AM 37.4 °F - 35.6 °F 93% 30.35 in 10.0 mi Calm Calm - N/A   Clear
2:35 AM 35.6 °F - 33.8 °F 93% 30.35 in 10.0 mi Calm Calm - N/A   Clear
2:55 AM 35.6 °F - 33.8 °F 93% 30.36 in 10.0 mi Calm Calm - N/A   Clear
3:35 AM 33.8 °F - 32.0 °F 93% 30.37 in 10.0 mi Calm Calm - N/A   Clear
3:55 AM 35.6 °F 31.7 °F 33.8 °F 93% 30.37 in 10.0 mi WNW 4.6 mph - N/A   Clear
4:15 AM 33.8 °F - 32.0 °F 93% 30.37 in 10.0 mi Calm Calm - N/A   Clear
4:35 AM 33.8 °F 28.6 °F 32.0 °F 93% 30.38 in 4.0 mi SE 5.8 mph - N/A   Clear
4:55 AM 33.8 °F 28.6 °F 33.8 °F 100% 30.38 in 10.0 mi ESE 5.8 mph - N/A   Clear
5:15 AM 33.8 °F - 32.0 °F 93% 30.38 in 7.0 mi Calm Calm - N/A   Clear
5:35 AM 35.6 °F - 33.8 °F 93% 30.38 in 10.0 mi Calm Calm - N/A   Clear
5:55 AM 33.8 °F - 32.0 °F 93% 30.39 in 3.0 mi Calm Calm - N/A   Clear
6:15 AM 32.0 °F - 32.0 °F 100% 30.39 in 4.0 mi Calm Calm - N/A   Clear
6:35 AM 33.8 °F - 33.8 °F 100% 30.40 in 7.0 mi Calm Calm - N/A   Mostly Cloudy
6:55 AM 33.8 °F - 33.8 °F 100% 30.41 in 4.0 mi Calm Calm - N/A   Overcast
7:15 AM 33.8 °F - 32.0 °F 93% 30.40 in 0.2 mi Calm Calm - N/A Fog Fog
8:15 AM 33.8 °F 30.8 °F 32.0 °F 93% 30.42 in 0.2 mi ESE 3.5 mph - N/A Snow Light Snow
8:35 AM 33.8 °F - 33.8 °F 100% 30.42 in 4.0 mi Calm Calm - N/A   Scattered Clouds
8:55 AM 35.6 °F - 35.6 °F 100% 30.43 in 10.0 mi Calm Calm - N/A   Scattered Clouds
9:15 AM 35.6 °F - 35.6 °F 100% 30.43 in 0.2 mi Calm Calm - N/A Fog Fog
9:35 AM 35.6 °F - 35.6 °F 100% 30.43 in 0.2 mi Calm Calm - N/A Fog Fog
9:55 AM 39.2 °F - 37.4 °F 93% 30.44 in 10.0 mi Calm Calm - N/A   Scattered Clouds
10:15 AM 41.0 °F - 37.4 °F 87% 30.44 in 10.0 mi Calm Calm - N/A   Clear
10:35 AM 42.8 °F - 39.2 °F 87% 30.44 in 10.0 mi Calm Calm - N/A   Clear
10:55 AM 44.6 °F - 39.2 °F 81% 30.43 in 10.0 mi Calm Calm - N/A   Clear
11:15 AM 46.4 °F - 41.0 °F 81% 30.43 in 10.0 mi Calm Calm - N/A   Clear
11:35 AM 46.4 °F - 41.0 °F 81% 30.43 in 10.0 mi Calm Calm - N/A   Clear
11:55 AM 50.0 °F - 41.0 °F 71% 30.41 in 10.0 mi Calm Calm - N/A   Clear
12:15 PM 51.8 °F - 41.0 °F 67% 30.40 in 10.0 mi Calm Calm - N/A   Clear
12:35 PM 53.6 °F - 41.0 °F 62% 30.40 in 10.0 mi Calm Calm - N/A   Clear
12:55 PM 55.4 °F - 39.2 °F 54% 30.38 in 10.0 mi Calm Calm - N/A   Clear
1:15 PM 57.2 °F - 41.0 °F 55% 30.37 in 10.0 mi North 3.5 mph - N/A   Clear
1:35 PM 59.0 °F - 37.4 °F 45% 30.36 in 10.0 mi Calm Calm - N/A   Clear
1:55 PM 60.8 °F - 35.6 °F 39% 30.35 in 10.0 mi Calm Calm - N/A   Clear
2:15 PM 60.8 °F - 37.4 °F 42% 30.34 in 10.0 mi Calm Calm - N/A   Clear
2:35 PM 60.8 °F - 37.4 °F 42% 30.33 in 10.0 mi Calm Calm - N/A   Clear
2:55 PM 62.6 °F - 37.4 °F 39% 30.32 in 10.0 mi Calm Calm - N/A   Clear
3:15 PM 62.6 °F - 35.6 °F 37% 30.32 in 10.0 mi Calm Calm - N/A   Clear
3:35 PM 62.6 °F - 37.4 °F 39% 30.31 in 10.0 mi WSW 8.1 mph - N/A   Clear
3:55 PM 64.4 °F - 35.6 °F 34% 30.31 in 10.0 mi WSW 8.1 mph - N/A   Clear
4:15 PM 62.6 °F - 35.6 °F 37% 30.31 in 10.0 mi WSW 11.5 mph - N/A   Clear
4:35 PM 64.4 °F - 35.6 °F 34% 30.30 in 10.0 mi WSW 12.7 mph - N/A   Clear
4:55 PM 62.6 °F - 33.8 °F 34% 30.30 in 10.0 mi WSW 12.7 mph - N/A   Clear
5:15 PM 62.6 °F - 33.8 °F 34% 30.30 in 10.0 mi WSW 11.5 mph - N/A   Clear
5:35 PM 62.6 °F - 33.8 °F 34% 30.30 in 10.0 mi WSW 10.4 mph - N/A   Clear
5:55 PM 60.8 °F - 33.8 °F 36% 30.29 in 10.0 mi WSW 13.8 mph - N/A   Clear
6:15 PM 60.8 °F - 35.6 °F 39% 30.28 in 10.0 mi SW 8.1 mph - N/A   Clear
6:35 PM 57.2 °F - 35.6 °F 44% 30.28 in 10.0 mi SW 5.8 mph - N/A   Clear
6:55 PM 53.6 °F - 35.6 °F 51% 30.28 in 10.0 mi SW 5.8 mph - N/A   Clear
7:15 PM 53.6 °F - 33.8 °F 47% 30.28 in 10.0 mi SW 9.2 mph - N/A   Clear
7:35 PM 51.8 °F - 33.8 °F 50% 30.28 in 10.0 mi South 3.5 mph - N/A   Clear
7:55 PM 50.0 °F - 35.6 °F 58% 30.28 in 10.0 mi East 5.8 mph - N/A   Clear
8:15 PM 48.2 °F - 33.8 °F 58% 30.28 in 10.0 mi Calm Calm - N/A   Clear
8:35 PM 46.4 °F - 33.8 °F 62% 30.29 in 10.0 mi Calm Calm - N/A   Clear
8:55 PM 42.8 °F - 33.8 °F 70% 30.30 in 10.0 mi Calm Calm - N/A   Clear
9:15 PM 42.8 °F - 33.8 °F 70% 30.30 in 10.0 mi Calm Calm - N/A   Clear
9:35 PM 39.2 °F - 33.8 °F 81% 30.29 in 10.0 mi Calm Calm - N/A   Clear
9:55 PM 39.2 °F - 33.8 °F 81% 30.29 in 10.0 mi Calm Calm - N/A   Clear
10:15 PM 39.2 °F - 33.8 °F 81% 30.30 in 10.0 mi Calm Calm - N/A   Clear
10:35 PM 37.4 °F - 33.8 °F 87% 30.29 in 10.0 mi Calm Calm - N/A   Clear
10:55 PM 37.4 °F - 32.0 °F 81% 30.30 in 10.0 mi Calm Calm - N/A   Clear
11:35 PM 37.4 °F - 33.8 °F 87% 30.29 in 10.0 mi Calm Calm - N/A   Clear
11:55 PM 35.6 °F - 32.0 °F 87% 30.29 in 10.0 mi Calm Calm - N/A   Clear